Location: 761 Underwood Rd, Vestal, NY 13850, USA
(42.0046°N, 76.0259°W)
Time: 08:54:18
(UTC-04:00)

ISS - Pass Details

Date: 22 March 2019
Orbit: 408 x 410 km, 51.6° (Epoch: 18 April)

Event Time Altitude Azimuth Distance (km) Brightness Sun altitude
Rises 20:41:33 0° 236° (SW) 2,325 0.6 -16.0°
Reaches altitude 10° 20:43:37 10° 237° (WSW) 1,467 -0.4 -16.4°
Maximum altitude 20:46:55 82° 327° (NNW) 417 -3.8 -17.0°
Enters shadow 20:48:13 34° 50° (NE) 694 -3.0 -17.2°
